User: anonymous   Login
Location: ?ejeti?ky
(50.4060°N, 14.9016°E)
Time: 22:08:53
(UTC+00:00)
Language:

Tiangong - Orbit

View from above orbital plane
View from above orbital plane
View from above satellite
View from above satellite

Ground track
Ground track

The orbit data is extracted from the following two-line orbital elements,

1 48274U 21035A   21298.48321966  .00022059  00000-0  26004-3 0  9990
2 48274  41.4698 208.5004 0006628 258.2657 269.5170 15.60816539 28076
Epoch (UTC): 25 October 2021 11:35:50
Eccentricity: 0.0006628
inclination: 41.4698°
perigee height: 381 km
apogee height: 390 km
right ascension of ascending node: 208.5004°
argument of perigee: 258.2657°
revolutions per day: 15.60816539
mean anomaly at epoch: 269.5170°
orbit number at epoch: 2807

The dashed part of the orbit path shows where the satellite is in the earth's shadow,  

DLR